User: anonymous   Login
Location: Newark
(48.2056°N, 97.3400°W)
Time: 10:08:29
(UTC+00:00)
Language:

LightSail 2 - Orbit

View from above orbital plane
View from above orbital plane
View from above satellite
View from above satellite

Ground track
Ground track

The orbit data is extracted from the following two-line orbital elements,

1 44420U 19036AC  19346.84896899 +.00003446 +00000-0 +75181-3 0  9999
2 44420 024.0096 211.5228 0023836 241.7286 118.0868 14.53874687022975
Epoch (UTC): 12 December 2019 20:22:30
Eccentricity: 0.0023836
inclination: 24.0096°
perigee height: 696 km
apogee height: 730 km
right ascension of ascending node: 211.5228°
argument of perigee: 241.7286°
revolutions per day: 14.53874687
mean anomaly at epoch: 118.0868°
orbit number at epoch: 2297

The dashed part of the orbit path shows where the satellite is in the earth's shadow,  

DLR